| time (UTC) | temp F | wind direction | speed knots | gust knots | rain 1hr in | rain 24hr in | rain mn in | humidity % | barometer mb |
| 20260508095728 | 69 | 0 | 6.1 | 9.6 | 0.00 | 0.00 | 0.00 | 49 | 1020.1 |
| 20260508095228 | 70 | 317 | 6.1 | 9.6 | 0.00 | 0.00 | 0.00 | 53 | 1020.0 |
| 20260508094730 | 71 | 0 | 3.5 | 6.1 | 0.00 | 0.00 | 0.00 | 53 | 1020.0 |
| 20260508094229 | 71 | 314 | 4.3 | 6.1 | 0.00 | 0.00 | 0.00 | 53 | 1020.0 |
| 20260508093730 | 71 | 127 | 1.7 | 5.2 | 0.00 | 0.00 | 0.00 | 53 | 1019.9 |
| 20260508093227 | 71 | 0 | 2.6 | 8.7 | 0.00 | 0.00 | 0.00 | 51 | 1019.9 |
| 20260508092725 | 72 | 0 | 4.3 | 8.7 | 0.00 | 0.00 | 0.00 | 51 | 1019.9 |
| 20260508092224 | 73 | 289 | 0.9 | 4.3 | 0.00 | 0.00 | 0.00 | 40 | 1020.1 |
| 20260508091948 | 72 | 0 | 3.5 | 4.3 | 0.00 | 0.00 | 0.00 | 39 | 1020.1 |
| 20260508091223 | 73 | 175 | 1.7 | 4.3 | 0.00 | 0.00 | 0.00 | 39 | 1019.9 |
| 20260508090723 | 72 | 176 | 2.6 | 4.3 | 0.00 | 0.00 | 0.00 | 38 | 1019.9 |
| 20260508090224 | 72 | 202 | 1.7 | 3.5 | 0.00 | 0.00 | 0.00 | 38 | 1019.9 |
| 20260508085724 | 72 | 197 | 1.7 | 3.5 | 0.00 | 0.00 | 0.00 | 42 | 1019.8 |
| 20260508085223 | 72 | 199 | 0.9 | 2.6 | 0.00 | 0.00 | 0.00 | 44 | 1019.7 |
| 20260508084722 | 72 | 195 | 0.9 | 5.2 | 0.00 | 0.00 | 0.00 | 44 | 1019.7 |
| 20260508084219 | 72 | 195 | 2.6 | 5.2 | 0.00 | 0.00 | 0.00 | 44 | 1019.7 |
| 20260508083718 | 72 | 209 | 1.7 | 4.3 | 0.00 | 0.00 | 0.00 | 43 | 1019.7 |
| 20260508083219 | 72 | 161 | 3.5 | 4.3 | 0.00 | 0.00 | 0.00 | 42 | 1019.8 |
| 20260508082720 | 71 | 213 | 0.9 | 5.2 | 0.00 | 0.00 | 0.00 | 43 | 1019.8 |
| 20260508082219 | 72 | 269 | 3.5 | 5.2 | 0.00 | 0.00 | 0.00 | 47 | 1019.7 |
| 20260508081717 | 72 | 312 | 2.6 | 5.2 | 0.00 | 0.00 | 0.00 | 44 | 1019.7 |
| 20260508081214 | 72 | 221 | 1.7 | 5.2 | 0.00 | 0.00 | 0.00 | 40 | 1019.7 |
| 20260508080715 | 71 | 212 | 3.5 | 5.2 | 0.00 | 0.00 | 0.00 | 41 | 1019.7 |
| 20260508080215 | 71 | 210 | 2.6 | 4.3 | 0.00 | 0.00 | 0.00 | 41 | 1019.6 |
| 20260508075713 | 71 | 213 | 3.5 | 5.2 | 0.00 | 0.00 | 0.00 | 42 | 1019.6 |
| 20260508075215 | 72 | 0 | 2.6 | 6.1 | 0.00 | 0.00 | 0.00 | 42 | 1019.6 |
| 20260508074715 | 72 | 230 | 3.5 | 6.1 | 0.00 | 0.00 | 0.00 | 42 | 1019.5 |
| 20260508074211 | 72 | 241 | 1.7 | 4.3 | 0.00 | 0.00 | 0.00 | 41 | 1019.4 |
| 20260508073706 | 72 | 0 | 1.7 | 6.1 | 0.00 | 0.00 | 0.00 | 39 | 1019.3 |
| 20260508073206 | 72 | 203 | 2.6 | 6.1 | 0.00 | 0.00 | 0.00 | 39 | 1019.1 |
| 20260508072707 | 72 | 180 | 3.5 | 7.8 | 0.00 | 0.00 | 0.00 | 38 | 1018.9 |
| 20260508072437 | 72 | 0 | 5.2 | 9.6 | 0.00 | 0.00 | 0.00 | 39 | 1018.8 |
| 20260508071706 | 72 | 0 | 5.2 | 10.4 | 0.00 | 0.00 | 0.00 | 39 | 1018.7 |
| 20260508071207 | 72 | 0 | 6.1 | 10.4 | 0.00 | 0.00 | 0.00 | 40 | 1018.6 |
| 20260508070707 | 72 | 0 | 6.1 | 8.7 | 0.00 | 0.00 | 0.00 | 42 | 1018.5 |
| 20260508070205 | 71 | 0 | 5.2 | 8.7 | 0.00 | 0.00 | 0.00 | 43 | 1018.3 |
| 20260508065704 | 71 | 161 | 3.5 | 7.8 | 0.00 | 0.00 | 0.00 | 44 | 1018.3 |
| 20260508065205 | 71 | 171 | 3.5 | 6.1 | 0.00 | 0.00 | 0.00 | 48 | 1018.3 |
| 20260508064705 | 71 | 175 | 3.5 | 4.3 | 0.00 | 0.00 | 0.00 | 48 | 1018.3 |
| 20260508064205 | 71 | 172 | 1.7 | 3.5 | 0.00 | 0.00 | 0.00 | 48 | 1018.1 |
| 20260508063702 | 71 | 169 | 1.7 | 4.3 | 0.00 | 0.00 | 0.00 | 46 | 1018.0 |
| 20260508063204 | 71 | 176 | 2.6 | 4.3 | 0.00 | 0.00 | 0.00 | 45 | 1017.9 |
| 20260508062701 | 71 | 148 | 2.6 | 3.5 | 0.00 | 0.00 | 0.00 | 43 | 1017.9 |
| 20260508062200 | 72 | 166 | 1.7 | 4.3 | 0.00 | 0.00 | 0.00 | 42 | 1017.8 |
| 20260508061701 | 72 | 165 | 1.7 | 4.3 | 0.00 | 0.00 | 0.00 | 41 | 1017.7 |
| 20260508061426 | 71 | 135 | 0.9 | 4.3 | 0.00 | 0.00 | 0.00 | 40 | 1017.6 |
| 20260508060702 | 71 | 62 | 1.7 | 8.7 | 0.00 | 0.00 | 0.00 | 40 | 1017.7 |
| 20260508060159 | 71 | 0 | 3.5 | 8.7 | 0.00 | 0.00 | 0.00 | 42 | 1017.6 |
| 20260508055659 | 70 | 59 | 3.5 | 9.6 | 0.00 | 0.00 | 0.00 | 41 | 1017.5 |
| 20260508055159 | 70 | 0 | 6.1 | 9.6 | 0.00 | 0.00 | 0.00 | 41 | 1017.4 |
| 20260508054656 | 70 | 8 | 6.1 | 9.6 | 0.00 | 0.00 | 0.00 | 39 | 1017.5 |
| 20260508054156 | 71 | 0 | 6.1 | 9.6 | 0.00 | 0.00 | 0.00 | 39 | 1017.4 |
| 20260508053658 | 71 | 355 | 2.6 | 4.3 | 0.00 | 0.00 | 0.00 | 37 | 1017.3 |
| 20260508053157 | 71 | 275 | 1.7 | 2.6 | 0.00 | 0.00 | 0.00 | 39 | 1017.1 |
| 20260508052658 | 71 | 254 | 0.0 | 3.5 | 0.00 | 0.00 | 0.00 | 39 | 1017.1 |
| 20260508052152 | 70 | 252 | 0.9 | 5.2 | 0.00 | 0.00 | 0.00 | 38 | 1017.1 |
| 20260508051653 | 70 | 0 | 2.6 | 7.8 | 0.00 | 0.00 | 0.00 | 44 | 1017.1 |
| 20260508051153 | 69 | 0 | 5.2 | 7.8 | 0.00 | 0.00 | 0.00 | 43 | 1017.0 |
| 20260508050907 | 69 | 24 | 2.6 | 4.3 | 0.00 | 0.00 | 0.00 | 39 | 1017.2 |
| 20260508050146 | 69 | 310 | 1.7 | 4.3 | 0.00 | 0.00 | 0.00 | 38 | 1016.9 |
| 20260508045910 | 68 | 0 | 2.6 | 4.3 | 0.00 | 0.00 | 0.00 | 36 | 1016.7 |
| 20260508045407 | 67 | 285 | 1.7 | 4.3 | 0.00 | 0.00 | 0.00 | 39 | 1016.7 |
| 20260508044644 | 65 | 347 | 1.7 | 3.5 | 0.00 | 0.00 | 0.00 | 41 | 1016.7 |
| 20260508044144 | 65 | 316 | 2.6 | 3.5 | 0.00 | 0.00 | 0.00 | 42 | 1016.8 |
| 20260508043642 | 63 | 313 | 2.6 | 2.6 | 0.00 | 0.00 | 0.00 | 43 | 1016.7 |
| 20260508043141 | 63 | 313 | 0.9 | 3.5 | 0.00 | 0.00 | 0.00 | 45 | 1016.6 |
| 20260508042910 | 62 | 312 | 1.7 | 3.5 | 0.00 | 0.00 | 0.00 | 45 | 1016.6 |
| 20260508042142 | 62 | 307 | 1.7 | 2.6 | 0.00 | 0.00 | 0.00 | 45 | 1016.8 |
| 20260508041639 | 62 | 316 | 0.0 | 3.5 | 0.00 | 0.00 | 0.00 | 44 | 1016.8 |
| 20260508041141 | 62 | 316 | 0.9 | 3.5 | 0.00 | 0.00 | 0.00 | 43 | 1016.8 |
| 20260508040641 | 62 | 324 | 1.7 | 3.5 | 0.00 | 0.00 | 0.00 | 42 | 1016.9 |
| 20260508040415 | 62 | 289 | 1.7 | 3.5 | 0.00 | 0.00 | 0.00 | 43 | 1016.9 |
| 20260508040140 | 62 | 319 | 2.6 | 3.5 | 0.00 | 0.00 | 0.00 | 43 | 1016.9 |
| 20260508035359 | 62 | 1 | 3.5 | 4.3 | 0.00 | 0.00 | 0.00 | 43 | 1016.9 |
| 20260508035128 | 61 | 290 | 3.5 | 4.3 | 0.00 | 0.00 | 0.00 | 44 | 1016.7 |
| 20260508034843 | 62 | 0 | 3.5 | 4.3 | 0.00 | 0.00 | 0.00 | 43 | 1016.9 |
| 20260508033636 | 61 | 329 | 2.6 | 4.3 | 0.00 | 0.00 | 0.00 | 44 | 1016.9 |
| 20260508033136 | 60 | 0 | 3.5 | 4.3 | 0.00 | 0.00 | 0.00 | 46 | 1016.9 |
| 20260508032634 | 60 | 336 | 2.6 | 4.3 | 0.00 | 0.00 | 0.00 | 47 | 1016.8 |
| 20260508032135 | 60 | 320 | 2.6 | 3.5 | 0.00 | 0.00 | 0.00 | 49 | 1016.9 |
| 20260508031634 | 60 | 0 | 3.5 | 3.5 | 0.00 | 0.00 | 0.00 | 48 | 1016.9 |
| 20260508031135 | 60 | 334 | 2.6 | 3.5 | 0.00 | 0.00 | 0.00 | 49 | 1017.1 |
| 20260508030634 | 60 | 314 | 2.6 | 3.5 | 0.00 | 0.00 | 0.00 | 50 | 1017.1 |
| 20260508030134 | 60 | 0 | 2.6 | 3.5 | 0.00 | 0.00 | 0.00 | 50 | 1017.0 |
| 20260508025634 | 60 | 313 | 2.6 | 3.5 | 0.00 | 0.00 | 0.00 | 51 | 1017.2 |
| 20260508025133 | 60 | 306 | 0.0 | 3.5 | 0.00 | 0.00 | 0.00 | 51 | 1017.1 |
| 20260508024633 | 60 | 306 | 1.7 | 5.2 | 0.00 | 0.00 | 0.00 | 51 | 1017.2 |
| 20260508024400 | 60 | 0 | 3.5 | 5.2 | 0.00 | 0.00 | 0.00 | 51 | 1017.1 |
| 20260508023630 | 60 | 0 | 3.5 | 4.3 | 0.00 | 0.00 | 0.00 | 52 | 1017.1 |
| 20260508023131 | 60 | 319 | 3.5 | 4.3 | 0.00 | 0.00 | 0.00 | 52 | 1017.1 |
| 20260508022843 | 61 | 0 | 2.6 | 3.5 | 0.00 | 0.00 | 0.00 | 52 | 1017.2 |
| 20260508022826 | 61 | 319 | 2.6 | 3.5 | 0.00 | 0.00 | 0.00 | 52 | 1017.1 |
| 20260508021629 | 61 | 0 | 0.9 | 3.5 | 0.00 | 0.00 | 0.00 | 52 | 1017.2 |
| 20260508021130 | 61 | 309 | 1.7 | 3.5 | 0.00 | 0.00 | 0.00 | 52 | 1017.3 |
| 20260508020631 | 62 | 324 | 0.0 | 2.6 | 0.00 | 0.00 | 0.00 | 52 | 1017.2 |
| 20260508020128 | 62 | 324 | 1.7 | 2.6 | 0.00 | 0.00 | 0.00 | 52 | 1017.2 |
| 20260508015627 | 62 | 324 | 1.7 | 3.5 | 0.00 | 0.00 | 0.00 | 52 | 1017.3 |
| 20260508015127 | 62 | 341 | 1.7 | 3.5 | 0.00 | 0.00 | 0.00 | 52 | 1017.4 |
| 20260508014851 | 62 | 319 | 2.6 | 3.5 | 0.00 | 0.00 | 0.00 | 52 | 1017.3 |
| 20260508014126 | 62 | 30 | 0.9 | 1.7 | 0.00 | 0.00 | 0.00 | 52 | 1017.2 |
| 20260508013622 | 62 | 44 | 0.9 | 1.7 | 0.00 | 0.00 | 0.00 | 52 | 1017.4 |
| 20260508013122 | 62 | 334 | 0.0 | 3.5 | 0.00 | 0.00 | 0.00 | 52 | 1017.3 |
| 20260508012622 | 62 | 333 | 1.7 | 3.5 | 0.00 | 0.00 | 0.00 | 52 | 1017.3 |
| 20260508012121 | 62 | 0 | 1.7 | 3.5 | 0.00 | 0.00 | 0.00 | 52 | 1017.3 |
| 20260508011621 | 62 | 295 | 2.6 | 3.5 | 0.00 | 0.00 | 0.00 | 53 | 1017.2 |
| 20260508011121 | 62 | 321 | 1.7 | 3.5 | 0.00 | 0.00 | 0.00 | 53 | 1017.3 |
| 20260508010620 | 62 | 354 | 2.6 | 2.6 | 0.00 | 0.00 | 0.00 | 53 | 1017.5 |
| 20260508010119 | 62 | 326 | 0.9 | 2.6 | 0.00 | 0.00 | 0.00 | 53 | 1017.5 |
| 20260508005619 | 62 | 326 | 1.7 | 3.5 | 0.00 | 0.00 | 0.00 | 53 | 1017.6 |
| 20260508005119 | 61 | 338 | 1.7 | 3.5 | 0.00 | 0.00 | 0.00 | 53 | 1017.7 |
| 20260508004618 | 61 | 0 | 2.6 | 3.5 | 0.00 | 0.00 | 0.00 | 53 | 1017.7 |
| 20260508004118 | 61 | 323 | 1.7 | 2.6 | 0.00 | 0.00 | 0.00 | 53 | 1017.8 |
| 20260508003618 | 62 | 329 | 1.7 | 2.6 | 0.00 | 0.00 | 0.00 | 53 | 1017.9 |
| 20260508003119 | 61 | 0 | 0.9 | 4.3 | 0.00 | 0.00 | 0.00 | 53 | 1017.9 |
| 20260508002618 | 61 | 351 | 1.7 | 4.3 | 0.00 | 0.00 | 0.00 | 53 | 1017.8 |
| 20260508002118 | 61 | 323 | 1.7 | 1.7 | 0.00 | 0.00 | 0.00 | 52 | 1017.8 |
| 20260508001618 | 61 | 321 | 1.7 | 2.6 | 0.00 | 0.00 | 0.00 | 52 | 1017.8 |
| 20260508001118 | 61 | 324 | 1.7 | 2.6 | 0.00 | 0.00 | 0.00 | 52 | 1017.7 |
| 20260508000618 | 62 | 343 | 1.7 | 3.5 | 0.00 | 0.00 | 0.00 | 52 | 1017.8 |
| 20260508000119 | 62 | 340 | 2.6 | 4.3 | 0.00 | 0.00 | 0.00 | 52 | 1017.8 |
| 20260507235839 | 62 | 307 | 2.6 | 4.3 | 0.00 | 0.00 | 0.00 | 53 | 1017.8 |
| 20260507235119 | 61 | 0 | 2.6 | 4.3 | 0.00 | 0.00 | 0.00 | 54 | 1017.9 |
| 20260507234618 | 61 | 296 | 2.6 | 3.5 | 0.00 | 0.00 | 0.00 | 54 | 1018.0 |
| 20260507234118 | 61 | 303 | 1.7 | 2.6 | 0.00 | 0.00 | 0.00 | 55 | 1018.1 |
| 20260507233847 | 61 | 309 | 1.7 | 2.6 | 0.00 | 0.00 | 0.00 | 55 | 1018.3 |
| 20260507233118 | 61 | 316 | 0.0 | 1.7 | 0.00 | 0.00 | 0.00 | 55 | 1018.3 |
| 20260507232618 | 61 | 299 | 0.9 | 2.6 | 0.00 | 0.00 | 0.00 | 56 | 1018.4 |
| 20260507232117 | 61 | 324 | 1.7 | 3.5 | 0.00 | 0.00 | 0.00 | 56 | 1018.3 |
| 20260507231838 | 61 | 338 | 2.6 | 3.5 | 0.00 | 0.00 | 0.00 | 56 | 1018.3 |
| 20260507231118 | 61 | 329 | 1.7 | 3.5 | 0.00 | 0.00 | 0.00 | 56 | 1018.3 |
| 20260507230616 | 61 | 312 | 1.7 | 2.6 | 0.00 | 0.00 | 0.00 | 56 | 1018.3 |
| 20260507230117 | 62 | 313 | 1.7 | 2.6 | 0.00 | 0.00 | 0.00 | 56 | 1018.5 |
| 20260507225617 | 62 | 313 | 1.7 | 1.7 | 0.00 | 0.00 | 0.00 | 56 | 1018.6 |
| 20260507225116 | 62 | 314 | 1.7 | 2.6 | 0.00 | 0.00 | 0.00 | 56 | 1018.6 |
| 20260507224617 | 62 | 314 | 0.9 | 2.6 | 0.00 | 0.00 | 0.00 | 56 | 1018.5 |
| 20260507224116 | 62 | 312 | 1.7 | 3.5 | 0.00 | 0.00 | 0.00 | 57 | 1018.7 |
| 20260507223616 | 62 | 321 | 1.7 | 3.5 | 0.00 | 0.00 | 0.00 | 57 | 1018.8 |
| 20260507223117 | 62 | 307 | 1.7 | 2.6 | 0.00 | 0.00 | 0.00 | 57 | 1018.8 |
| 20260507222617 | 62 | 329 | 0.9 | 2.6 | 0.00 | 0.00 | 0.00 | 57 | 1018.8 |
| 20260507222115 | 62 | 329 | 0.0 | 1.7 | 0.00 | 0.00 | 0.00 | 57 | 1018.7 |
| 20260507221616 | 62 | 330 | 0.9 | 2.6 | 0.00 | 0.00 | 0.00 | 57 | 1018.7 |
| 20260507221116 | 62 | 330 | 1.7 | 3.5 | 0.00 | 0.00 | 0.00 | 57 | 1018.6 |
| 20260507220616 | 62 | 317 | 1.7 | 3.5 | 0.00 | 0.00 | 0.00 | 57 | 1018.5 |
| 20260507220336 | 62 | 316 | 1.7 | 2.6 | 0.00 | 0.00 | 0.00 | 57 | 1018.5 |
| 20260507215616 | 62 | 313 | 1.7 | 2.6 | 0.00 | 0.00 | 0.00 | 58 | 1018.6 |
| 20260507215116 | 62 | 313 | 1.7 | 2.6 | 0.00 | 0.00 | 0.00 | 58 | 1018.6 |
| 20260507214837 | 62 | 314 | 0.0 | 2.6 | 0.00 | 0.00 | 0.00 | 58 | 1018.7 |
| 20260507214116 | 62 | 317 | 1.7 | 2.6 | 0.00 | 0.00 | 0.00 | 58 | 1018.7 |
| 20260507213616 | 62 | 319 | 0.0 | 1.7 | 0.00 | 0.00 | 0.00 | 58 | 1018.7 |
| 20260507213116 | 62 | 316 | 1.7 | 1.7 | 0.00 | 0.00 | 0.00 | 58 | 1018.8 |
| 20260507212616 | 62 | 321 | 0.0 | 2.6 | 0.00 | 0.00 | 0.00 | 58 | 1018.9 |
| 20260507212114 | 62 | 321 | 1.7 | 2.6 | 0.00 | 0.00 | 0.00 | 58 | 1018.9 |
| 20260507211615 | 62 | 323 | 0.0 | 3.5 | 0.00 | 0.00 | 0.00 | 58 | 1018.7 |
| 20260507211114 | 62 | 340 | 0.9 | 3.5 | 0.00 | 0.00 | 0.00 | 58 | 1018.7 |
| 20260507210839 | 62 | 0 | 1.7 | 3.5 | 0.00 | 0.00 | 0.00 | 57 | 1018.6 |
| 20260507210113 | 62 | 321 | 0.0 | 2.6 | 0.00 | 0.00 | 0.00 | 58 | 1018.5 |
| 20260507205614 | 62 | 306 | 0.9 | 3.5 | 0.00 | 0.00 | 0.00 | 58 | 1018.6 |
| 20260507205113 | 62 | 309 | 2.6 | 3.5 | 0.00 | 0.00 | 0.00 | 57 | 1018.7 |
| 20260507204613 | 62 | 314 | 0.0 | 0.0 | 0.00 | 0.00 | 0.00 | 58 | 1018.6 |
| 20260507204336 | 62 | 314 | 0.0 | 0.0 | 0.00 | 0.00 | 0.00 | 57 | 1018.8 |
| 20260507203614 | 62 | 314 | 0.0 | 0.0 | 0.00 | 0.00 | 0.00 | 57 | 1018.8 |
| 20260507203113 | 62 | 314 | 0.0 | 0.0 | 0.00 | 0.00 | 0.00 | 57 | 1018.7 |
| 20260507202841 | 62 | 314 | 0.0 | 0.0 | 0.00 | 0.00 | 0.00 | 57 | 1018.7 |
| 20260507202114 | 62 | 313 | 0.0 | 0.9 | 0.00 | 0.00 | 0.00 | 57 | 1018.6 |
| 20260507201612 | 63 | 313 | 0.0 | 2.6 | 0.00 | 0.00 | 0.00 | 57 | 1018.5 |
| 20260507201111 | 63 | 0 | 1.7 | 2.6 | 0.00 | 0.00 | 0.00 | 57 | 1018.5 |
| 20260507200613 | 63 | 316 | 0.0 | 0.0 | 0.00 | 0.00 | 0.00 | 57 | 1018.3 |
| 20260507200112 | 63 | 321 | 0.0 | 0.0 | 0.00 | 0.00 | 0.00 | 57 | 1018.4 |
| 20260507195838 | 63 | 321 | 0.0 | 0.0 | 0.00 | 0.00 | 0.00 | 57 | 1018.6 |
| 20260507195113 | 63 | 321 | 0.0 | 0.0 | 0.00 | 0.00 | 0.00 | 57 | 1018.6 |
| 20260507194612 | 63 | 321 | 0.0 | 0.0 | 0.00 | 0.00 | 0.00 | 57 | 1018.6 |
| 20260507194112 | 63 | 321 | 0.0 | 0.0 | 0.00 | 0.00 | 0.00 | 57 | 1018.5 |
| 20260507193612 | 63 | 321 | 0.0 | 0.0 | 0.00 | 0.00 | 0.00 | 57 | 1018.6 |
| 20260507193111 | 64 | 321 | 0.0 | 0.0 | 0.00 | 0.00 | 0.00 | 57 | 1018.7 |
| 20260507192611 | 64 | 321 | 0.0 | 0.0 | 0.00 | 0.00 | 0.00 | 57 | 1018.6 |
| 20260507192331 | 64 | 321 | 0.0 | 0.0 | 0.00 | 0.00 | 0.00 | 57 | 1018.6 |
| 20260507191611 | 64 | 314 | 0.0 | 0.0 | 0.00 | 0.00 | 0.00 | 57 | 1018.6 |
| 20260507191112 | 63 | 305 | 0.0 | 2.6 | 0.00 | 0.00 | 0.00 | 57 | 1018.7 |
| 20260507190611 | 63 | 303 | 0.0 | 2.6 | 0.00 | 0.00 | 0.00 | 57 | 1018.8 |
| 20260507190110 | 63 | 306 | 0.9 | 2.6 | 0.00 | 0.00 | 0.00 | 57 | 1018.8 |
| 20260507185611 | 63 | 321 | 0.9 | 2.6 | 0.00 | 0.00 | 0.00 | 57 | 1018.8 |
| 20260507185111 | 64 | 353 | 0.0 | 3.5 | 0.00 | 0.00 | 0.00 | 57 | 1018.8 |
| 20260507184611 | 64 | 351 | 1.7 | 3.5 | 0.00 | 0.00 | 0.00 | 57 | 1018.7 |
| 20260507184113 | 64 | 299 | 1.7 | 3.5 | 0.00 | 0.00 | 0.00 | 57 | 1018.8 |
| 20260507184105 | 64 | 264 | 0.0 | 2.6 | 0.00 | 0.00 | 0.00 | 57 | 1018.7 |
| 20260507183111 | 64 | 264 | 0.0 | 2.6 | 0.00 | 0.00 | 0.00 | 57 | 1018.6 |
| 20260507182610 | 64 | 231 | 0.0 | 0.0 | 0.00 | 0.00 | 0.00 | 57 | 1018.6 |
| 20260507182110 | 65 | 173 | 0.0 | 0.0 | 0.00 | 0.00 | 0.00 | 57 | 1018.7 |
| 20260507181610 | 65 | 172 | 0.0 | 0.0 | 0.00 | 0.00 | 0.00 | 57 | 1018.7 |
| 20260507181110 | 65 | 172 | 0.0 | 0.0 | 0.00 | 0.00 | 0.00 | 57 | 1018.6 |
| 20260507180610 | 65 | 171 | 0.0 | 0.0 | 0.00 | 0.00 | 0.00 | 57 | 1018.6 |
| 20260507180109 | 65 | 171 | 0.0 | 0.0 | 0.00 | 0.00 | 0.00 | 57 | 1018.6 |
| 20260507175609 | 65 | 171 | 0.0 | 0.0 | 0.00 | 0.00 | 0.00 | 57 | 1018.5 |
| 20260507175109 | 66 | 172 | 0.0 | 0.0 | 0.00 | 0.00 | 0.00 | 57 | 1018.6 |
| 20260507174609 | 66 | 171 | 0.0 | 0.0 | 0.00 | 0.00 | 0.00 | 57 | 1018.6 |
| 20260507174110 | 66 | 171 | 0.0 | 0.0 | 0.00 | 0.00 | 0.00 | 56 | 1018.5 |
| 20260507173839 | 67 | 171 | 0.0 | 0.9 | 0.00 | 0.00 | 0.00 | 57 | 1018.4 |
| 20260507173330 | 67 | 171 | 0.0 | 0.9 | 0.00 | 0.00 | 0.00 | 56 | 1018.4 |
| 20260507172610 | 68 | 171 | 0.0 | 0.9 | 0.00 | 0.00 | 0.00 | 57 | 1018.3 |
| 20260507172110 | 68 | 171 | 0.0 | 1.7 | 0.00 | 0.00 | 0.00 | 57 | 1018.4 |
| 20260507171609 | 68 | 171 | 0.0 | 1.7 | 0.00 | 0.00 | 0.00 | 57 | 1018.6 |
| 20260507171109 | 69 | 171 | 0.9 | 1.7 | 0.00 | 0.00 | 0.00 | 57 | 1018.5 |
| 20260507170621 | 69 | 171 | 0.0 | 0.0 | 0.00 | 0.00 | 0.00 | 56 | 1018.7 |
| 20260507170108 | 69 | 171 | 0.0 | 1.7 | 0.00 | 0.00 | 0.00 | 56 | 1018.5 |
| 20260507165608 | 69 | 171 | 0.0 | 2.6 | 0.00 | 0.00 | 0.00 | 56 | 1018.3 |
| 20260507165330 | 69 | 171 | 1.7 | 2.6 | 0.00 | 0.00 | 0.00 | 55 | 1018.3 |
| 20260507164609 | 69 | 171 | 0.0 | 0.0 | 0.00 | 0.00 | 0.00 | 55 | 1018.3 |
| 20260507164333 | 70 | 171 | 0.0 | 0.0 | 0.00 | 0.00 | 0.00 | 55 | 1018.4 |
| 20260507163606 | 70 | 171 | 0.0 | 0.0 | 0.00 | 0.00 | 0.00 | 54 | 1018.2 |
| 20260507163107 | 70 | 171 | 0.0 | 1.7 | 0.00 | 0.00 | 0.00 | 54 | 1018.2 |
| 20260507162608 | 70 | 171 | 0.9 | 2.6 | 0.00 | 0.00 | 0.00 | 53 | 1018.2 |
| 20260507162107 | 71 | 171 | 0.9 | 2.6 | 0.00 | 0.00 | 0.00 | 52 | 1018.2 |
| 20260507161829 | 71 | 171 | 0.9 | 2.6 | 0.00 | 0.00 | 0.00 | 51 | 1018.3 |
| 20260507161108 | 71 | 171 | 1.7 | 2.6 | 0.00 | 0.00 | 0.00 | 50 | 1018.3 |
| 20260507160608 | 71 | 169 | 0.0 | 2.6 | 0.00 | 0.00 | 0.00 | 48 | 1018.2 |
| 20260507160329 | 72 | 169 | 1.7 | 2.6 | 0.00 | 0.00 | 0.00 | 48 | 1018.4 |
| 20260507155607 | 72 | 175 | 1.7 | 2.6 | 0.00 | 0.00 | 0.00 | 46 | 1018.2 |
| 20260507155104 | 72 | 192 | 0.0 | 2.6 | 0.00 | 0.00 | 0.00 | 43 | 1018.3 |
| 20260507154606 | 71 | 0 | 0.0 | 1.7 | 0.00 | 0.00 | 0.00 | 42 | 1018.1 |
| 20260507154107 | 71 | 252 | 0.0 | 1.7 | 0.00 | 0.00 | 0.00 | 43 | 1018.1 |
| 20260507153606 | 71 | 252 | 0.0 | 2.6 | 0.00 | 0.00 | 0.00 | 45 | 1018.0 |
| 20260507153108 | 71 | 252 | 0.9 | 4.3 | 0.00 | 0.00 | 0.00 | 46 | 1018.1 |
| 20260507152605 | 71 | 210 | 0.9 | 4.3 | 0.00 | 0.00 | 0.00 | 47 | 1018.1 |
| 20260507152106 | 71 | 195 | 3.5 | 4.3 | 0.00 | 0.00 | 0.00 | 48 | 1018.1 |
| 20260507151607 | 72 | 221 | 1.7 | 4.3 | 0.00 | 0.00 | 0.00 | 48 | 1018.2 |
| 20260507151106 | 72 | 161 | 2.6 | 4.3 | 0.00 | 0.00 | 0.00 | 48 | 1018.3 |
| 20260507150604 | 72 | 183 | 1.7 | 5.2 | 0.00 | 0.00 | 0.00 | 47 | 1018.3 |
| 20260507150105 | 72 | 196 | 1.7 | 5.2 | 0.00 | 0.00 | 0.00 | 45 | 1018.2 |
| 20260507145605 | 71 | 207 | 3.5 | 5.2 | 0.00 | 0.00 | 0.00 | 43 | 1018.3 |
| 20260507145106 | 71 | 192 | 3.5 | 5.2 | 0.00 | 0.00 | 0.00 | 43 | 1018.2 |
| 20260507144833 | 72 | 243 | 2.6 | 5.2 | 0.00 | 0.00 | 0.00 | 42 | 1018.1 |
| 20260507144331 | 72 | 175 | 3.5 | 6.1 | 0.00 | 0.00 | 0.00 | 42 | 1018.2 |
| 20260507143604 | 72 | 228 | 4.3 | 6.1 | 0.00 | 0.00 | 0.00 | 42 | 1018.3 |
| 20260507143106 | 72 | 0 | 3.5 | 6.1 | 0.00 | 0.00 | 0.00 | 44 | 1018.2 |
| 20260507142605 | 72 | 220 | 1.7 | 6.1 | 0.00 | 0.00 | 0.00 | 45 | 1018.1 |
| 20260507142330 | 71 | 238 | 3.5 | 6.1 | 0.00 | 0.00 | 0.00 | 45 | 1018.2 |
| 20260507141606 | 71 | 182 | 2.6 | 6.1 | 0.00 | 0.00 | 0.00 | 45 | 1018.3 |
| 20260507141104 | 71 | 0 | 4.3 | 7.8 | 0.00 | 0.00 | 0.00 | 46 | 1018.3 |
| 20260507140605 | 70 | 257 | 2.6 | 7.8 | 0.00 | 0.00 | 0.00 | 50 | 1018.3 |
| 20260507140104 | 70 | 235 | 3.5 | 6.1 | 0.00 | 0.00 | 0.00 | 51 | 1018.2 |
| 20260507135826 | 69 | 233 | 3.5 | 6.1 | 0.00 | 0.00 | 0.00 | 52 | 1018.2 |
| 20260507135105 | 70 | 0 | 2.6 | 6.1 | 0.00 | 0.00 | 0.00 | 54 | 1018.3 |
| 20260507134604 | 70 | 0 | 2.6 | 8.7 | 0.00 | 0.00 | 0.00 | 55 | 1018.4 |
| 20260507134106 | 70 | 223 | 5.2 | 8.7 | 0.00 | 0.00 | 0.00 | 54 | 1018.5 |
| 20260507133604 | 71 | 190 | 2.6 | 6.1 | 0.00 | 0.00 | 0.00 | 55 | 1018.6 |
| 20260507133103 | 71 | 200 | 4.3 | 7.8 | 0.00 | 0.00 | 0.00 | 53 | 1018.6 |
| 20260507132603 | 71 | 214 | 4.3 | 8.7 | 0.00 | 0.00 | 0.00 | 51 | 1018.8 |
| 20260507132104 | 72 | 0 | 5.2 | 8.7 | 0.00 | 0.00 | 0.00 | 50 | 1018.7 |
| 20260507131604 | 72 | 0 | 2.6 | 8.7 | 0.00 | 0.00 | 0.00 | 50 | 1018.5 |
| 20260507131103 | 72 | 257 | 5.2 | 8.7 | 0.00 | 0.00 | 0.00 | 50 | 1018.3 |
| 20260507130605 | 72 | 166 | 3.5 | 7.8 | 0.00 | 0.00 | 0.00 | 50 | 1018.2 |
| 20260507125604 | 72 | 207 | 5.2 | 8.7 | 0.00 | 0.00 | 0.00 | 51 | 1018.6 |
| 20260507125102 | 72 | 0 | 5.2 | 8.7 | 0.00 | 0.00 | 0.00 | 52 | 1018.7 |
| 20260507124603 | 72 | 0 | 3.5 | 7.8 | 0.00 | 0.00 | 0.00 | 52 | 1018.8 |
| 20260507124102 | 72 | 0 | 4.3 | 7.8 | 0.00 | 0.00 | 0.00 | 51 | 1018.8 |
| 20260507123603 | 72 | 0 | 3.5 | 9.6 | 0.00 | 0.00 | 0.00 | 52 | 1018.9 |
| 20260507123103 | 72 | 185 | 5.2 | 9.6 | 0.00 | 0.00 | 0.00 | 50 | 1019.1 |
| 20260507122603 | 73 | 154 | 2.6 | 7.8 | 0.00 | 0.00 | 0.00 | 50 | 1019.0 |
| 20260507122104 | 73 | 172 | 1.7 | 8.7 | 0.00 | 0.00 | 0.00 | 51 | 1019.1 |
| 20260507122053 | 72 | 0 | 3.5 | 8.7 | 0.00 | 0.00 | 0.00 | 51 | 1018.9 |
| 20260507121101 | 72 | 192 | 5.2 | 8.7 | 0.00 | 0.00 | 0.00 | 51 | 1019.0 |
| 20260507120826 | 72 | 199 | 4.3 | 10.4 | 0.00 | 0.00 | 0.00 | 53 | 1019.0 |
| 20260507120103 | 72 | 0 | 4.3 | 10.4 | 0.00 | 0.00 | 0.00 | 53 | 1019.1 |
| 20260507120052 | 72 | 0 | 5.2 | 9.6 | 0.00 | 0.00 | 0.00 | 54 | 1019.0 |
| 20260507115103 | 72 | 220 | 4.3 | 10.4 | 0.00 | 0.00 | 0.00 | 54 | 1019.0 |
| 20260507114601 | 71 | 0 | 3.5 | 10.4 | 0.00 | 0.00 | 0.00 | 54 | 1018.9 |
| 20260507114101 | 71 | 0 | 3.5 | 9.6 | 0.00 | 0.00 | 0.00 | 53 | 1018.8 |
| 20260507113823 | 71 | 241 | 5.2 | 9.6 | 0.00 | 0.00 | 0.00 | 52 | 1018.8 |
| 20260507113100 | 71 | 151 | 3.5 | 9.6 | 0.00 | 0.00 | 0.00 | 51 | 1018.8 |
| 20260507112602 | 72 | 0 | 5.2 | 9.6 | 0.00 | 0.00 | 0.00 | 51 | 1018.8 |
| 20260507112334 | 72 | 0 | 5.2 | 9.6 | 0.00 | 0.00 | 0.00 | 51 | 1018.8 |
| 20260507111602 | 71 | 0 | 4.3 | 9.6 | 0.00 | 0.00 | 0.00 | 51 | 1018.8 |
| 20260507111100 | 71 | 0 | 5.2 | 9.6 | 0.00 | 0.00 | 0.00 | 52 | 1018.8 |
| 20260507110601 | 71 | 0 | 4.3 | 10.4 | 0.00 | 0.00 | 0.00 | 52 | 1018.7 |
| 20260507110100 | 71 | 0 | 7.0 | 11.3 | 0.00 | 0.00 | 0.00 | 51 | 1018.8 |
| 20260507105600 | 70 | 178 | 6.1 | 11.3 | 0.00 | 0.00 | 0.00 | 50 | 1018.7 |
| 20260507105100 | 71 | 0 | 7.8 | 11.3 | 0.00 | 0.00 | 0.00 | 49 | 1018.8 |
| 20260507104600 | 71 | 0 | 6.1 | 11.3 | 0.00 | 0.00 | 0.00 | 51 | 1018.8 |
| 20260507104100 | 72 | 0 | 6.1 | 9.6 | 0.00 | 0.00 | 0.00 | 50 | 1018.8 |
| 20260507103600 | 72 | 0 | 2.6 | 8.7 | 0.00 | 0.00 | 0.00 | 51 | 1018.8 |
| 20260507103059 | 72 | 0 | 5.2 | 8.7 | 0.00 | 0.00 | 0.00 | 51 | 1018.6 |
| 20260507102559 | 71 | 186 | 4.3 | 9.6 | 0.00 | 0.00 | 0.00 | 52 | 1018.6 |
| 20260507102322 | 71 | 186 | 6.1 | 9.6 | 0.00 | 0.00 | 0.00 | 50 | 1018.6 |
| 20260507101559 | 71 | 203 | 4.3 | 9.6 | 0.00 | 0.00 | 0.00 | 50 | 1018.6 |
| 20260507101058 | 71 | 0 | 4.3 | 12.2 | 0.00 | 0.00 | 0.00 | 49 | 1018.7 |
| 20260507100824 | 71 | 185 | 5.2 | 12.2 | 0.00 | 0.00 | 0.00 | 51 | 1018.8 |
| 20260507100058 | 71 | 165 | 4.3 | 9.6 | 0.00 | 0.00 | 0.00 | 51 | 1018.8 |